CES6925 ZSFZ-ZSHC

Flight info

Callsign CES6925
Flight time N/A
Altitude 33100
Route BZ91D BZ A470 UGAGO
Aircraft A321/M-SDE3FGHIRWY/LB1

Departure

Time 2026-04-23 12:07
Airport Fuzhou Changle International Airport (ZSFZ)

Arrival

Time N/A
Airport Hangzhou Xiaoshan International Airport (ZSHC)
Time Latitude Longitude Altitude Speed Heading
2026-04-23 11:58 25.92830 119.66464 35 ft 0 kts 135°
2026-04-23 11:58 25.92839 119.66454 35 ft 2 kts 135°
2026-04-23 11:58 25.92851 119.66441 35 ft 2 kts 136°
2026-04-23 11:59 25.92863 119.66428 35 ft 2 kts 136°
2026-04-23 11:59 25.92875 119.66416 35 ft 2 kts 137°
2026-04-23 11:59 25.92887 119.66404 35 ft 2 kts 139°
2026-04-23 11:59 25.92900 119.66392 35 ft 2 kts 142°
2026-04-23 12:00 25.92914 119.66382 35 ft 2 kts 154°
2026-04-23 12:00 25.92929 119.66378 35 ft 2 kts 196°
2026-04-23 12:00 25.92935 119.66380 35 ft 1 kts 205°
2026-04-23 12:00 25.92922 119.66373 35 ft 0 kts 205°
2026-04-23 12:02 25.92900 119.66361 35 ft 7 kts 207°
2026-04-23 12:02 25.92838 119.66326 35 ft 13 kts 207°
2026-04-23 12:02 25.92743 119.66272 35 ft 18 kts 206°
2026-04-23 12:02 25.92639 119.66214 35 ft 18 kts 207°
2026-04-23 12:03 25.92551 119.66158 35 ft 9 kts 218°
2026-04-23 12:03 25.92532 119.66094 35 ft 9 kts 287°
2026-04-23 12:03 25.92512 119.66025 35 ft 13 kts 216°
2026-04-23 12:03 25.92415 119.65967 35 ft 19 kts 206°
2026-04-23 12:04 25.92300 119.65903 35 ft 17 kts 207°
2026-04-23 12:04 25.92211 119.65852 35 ft 11 kts 207°
2026-04-23 12:04 25.92125 119.65803 35 ft 16 kts 207°
2026-04-23 12:04 25.92043 119.65757 35 ft 12 kts 207°
2026-04-23 12:05 25.91986 119.65704 35 ft 11 kts 256°
2026-04-23 12:05 25.92011 119.65618 37 ft 14 kts 297°
2026-04-23 12:05 25.92053 119.65565 36 ft 5 kts 352°
2026-04-23 12:05 25.92096 119.65579 38 ft 0 kts 26°
2026-04-23 12:06 25.92106 119.65585 38 ft 6 kts 26°
2026-04-23 12:06 25.92344 119.65718 37 ft 75 kts 27°
2026-04-23 12:06 25.94011 119.66649 103 ft 178 kts 27°
2026-04-23 12:07 25.95084 119.67231 943 ft 168 kts 26°
2026-04-23 12:07 25.96076 119.67904 1771 ft 168 kts 48°
2026-04-23 12:07 25.96564 119.69057 2461 ft 168 kts 78°
2026-04-23 12:07 25.96650 119.70387 3003 ft 177 kts 84°
2026-04-23 12:08 25.96684 119.71805 3537 ft 189 kts 85°
2026-04-23 12:08 25.96734 119.73310 4027 ft 201 kts 85°
2026-04-23 12:08 25.97118 119.74815 4515 ft 209 kts 59°
2026-04-23 12:08 25.97983 119.76159 4995 ft 222 kts 40°
2026-04-23 12:09 25.98803 119.76892 5218 ft 235 kts 30°
2026-04-23 12:09 26.00827 119.78130 5759 ft 261 kts 25°
2026-04-23 12:09 26.01926 119.78756 6074 ft 273 kts 25°
2026-04-23 12:09 26.04253 119.80051 6795 ft 290 kts 25°
2026-04-23 12:10 26.05481 119.80731 7254 ft 293 kts 25°
2026-04-23 12:10 26.08071 119.81485 8204 ft 293 kts 356°
2026-04-23 12:10 26.10103 119.81302 8924 ft 294 kts 348°
2026-04-23 12:10 26.12154 119.81006 9639 ft 299 kts 347°
2026-04-23 12:11 26.14238 119.80716 10261 ft 306 kts 347°
2026-04-23 12:11 26.16415 119.80421 10592 ft 324 kts 347°
2026-04-23 12:11 26.18723 119.80120 10869 ft 343 kts 348°
2026-04-23 12:11 26.21149 119.79812 11148 ft 360 kts 348°
2026-04-23 12:12 26.22821 119.79604 11401 ft 368 kts 348°
2026-04-23 12:12 26.25379 119.79293 11992 ft 373 kts 348°
2026-04-23 12:12 26.27968 119.78978 12664 ft 375 kts 348°
2026-04-23 12:12 26.30580 119.78657 13242 ft 382 kts 347°
2026-04-23 12:13 26.33252 119.78325 13735 ft 388 kts 347°
2026-04-23 12:13 26.35954 119.77994 14267 ft 393 kts 347°
2026-04-23 12:13 26.38682 119.77663 14796 ft 396 kts 347°
2026-04-23 12:13 26.41446 119.77323 15323 ft 400 kts 347°
2026-04-23 12:14 26.44226 119.76982 15844 ft 404 kts 347°
2026-04-23 12:14 26.47032 119.76636 16357 ft 408 kts 347°
2026-04-23 12:14 26.49876 119.76283 16868 ft 412 kts 346°
2026-04-23 12:14 26.52738 119.75924 17378 ft 416 kts 346°
2026-04-23 12:15 26.56582 119.75448 18009 ft 422 kts 346°
2026-04-23 12:15 26.58519 119.75210 18322 ft 424 kts 346°
2026-04-23 12:15 26.61497 119.74844 18797 ft 426 kts 346°
2026-04-23 12:15 26.64398 119.74489 19409 ft 424 kts 346°
2026-04-23 12:16 26.67330 119.74124 19904 ft 425 kts 346°
2026-04-23 12:16 26.70289 119.73756 20348 ft 428 kts 346°
2026-04-23 12:16 26.73263 119.73384 20786 ft 432 kts 345°
2026-04-23 12:16 26.76279 119.73006 21042 ft 440 kts 345°
2026-04-23 12:17 26.79333 119.72623 21367 ft 445 kts 346°
2026-04-23 12:17 26.82433 119.72240 21773 ft 448 kts 345°
2026-04-23 12:17 26.85541 119.71850 22195 ft 451 kts 345°
2026-04-23 12:17 26.88677 119.71456 22606 ft 454 kts 345°
2026-04-23 12:18 26.91818 119.71067 23038 ft 454 kts 345°
2026-04-23 12:18 26.94965 119.70672 23434 ft 456 kts 345°
2026-04-23 12:18 26.98125 119.70276 23837 ft 457 kts 345°
2026-04-23 12:18 27.01283 119.69882 24295 ft 455 kts 345°
2026-04-23 12:19 27.04429 119.69492 24792 ft 453 kts 344°
2026-04-23 12:19 27.07552 119.69104 25313 ft 450 kts 344°
2026-04-23 12:19 27.10612 119.68723 25849 ft 447 kts 344°
2026-04-23 12:19 27.13697 119.68336 26326 ft 446 kts 343°
2026-04-23 12:20 27.16785 119.67947 26536 ft 445 kts 343°
2026-04-23 12:20 27.19766 119.67580 26577 ft 441 kts 343°
2026-04-23 12:20 27.22823 119.67202 26577 ft 440 kts 343°
2026-04-23 12:20 27.25860 119.66820 26574 ft 440 kts 343°
2026-04-23 12:21 27.28914 119.66438 26569 ft 440 kts 343°
2026-04-23 12:21 27.31955 119.66056 26567 ft 440 kts 343°
2026-04-23 12:21 27.34994 119.65675 26568 ft 440 kts 343°
2026-04-23 12:21 27.38040 119.65296 26567 ft 439 kts 343°
2026-04-23 12:22 27.41079 119.64916 26569 ft 439 kts 343°
2026-04-23 12:22 27.44121 119.64532 26566 ft 440 kts 343°
2026-04-23 12:22 27.47119 119.64155 26569 ft 440 kts 343°
2026-04-23 12:22 27.50168 119.63772 26571 ft 439 kts 343°
2026-04-23 12:23 27.53208 119.63389 26568 ft 439 kts 342°
2026-04-23 12:23 27.56248 119.63004 26570 ft 439 kts 342°
2026-04-23 12:23 27.59283 119.62620 26564 ft 439 kts 342°
2026-04-23 12:23 27.62316 119.62235 26569 ft 438 kts 342°
2026-04-23 12:24 27.65350 119.61854 26575 ft 439 kts 342°
2026-04-23 12:24 27.68378 119.61467 26585 ft 437 kts 342°
2026-04-23 12:24 27.71399 119.61083 26588 ft 435 kts 342°
2026-04-23 12:24 27.74415 119.60702 26593 ft 439 kts 342°
2026-04-23 12:25 27.77452 119.60317 26584 ft 439 kts 342°
2026-04-23 12:25 27.80449 119.59937 26587 ft 439 kts 342°
2026-04-23 12:25 27.83485 119.59555 26582 ft 438 kts 342°
2026-04-23 12:25 27.86517 119.59169 26589 ft 439 kts 342°
2026-04-23 12:26 27.89551 119.58786 26586 ft 437 kts 342°
2026-04-23 12:26 27.92568 119.58403 26588 ft 437 kts 342°
2026-04-23 12:26 27.95589 119.58022 26579 ft 437 kts 342°
2026-04-23 12:26 27.98614 119.57638 26578 ft 437 kts 342°
2026-04-23 12:27 28.01641 119.57250 26582 ft 438 kts 342°
2026-04-23 12:27 28.04680 119.56865 26589 ft 439 kts 342°
2026-04-23 12:27 28.07716 119.56474 26591 ft 438 kts 342°
2026-04-23 12:27 28.10766 119.56178 26589 ft 445 kts 348°
2026-04-23 12:28 28.13857 119.56276 26591 ft 452 kts 352°
2026-04-23 12:28 28.17034 119.56482 26599 ft 453 kts 352°
2026-04-23 12:28 28.20151 119.56686 26604 ft 453 kts 352°
2026-04-23 12:28 28.23301 119.56873 26607 ft 456 kts 352°
2026-04-23 12:29 28.26479 119.57052 26603 ft 458 kts 352°
2026-04-23 12:29 28.29672 119.57228 26605 ft 458 kts 352°
2026-04-23 12:29 28.32841 119.57407 26601 ft 458 kts 352°
2026-04-23 12:29 28.36035 119.57593 26611 ft 458 kts 352°
2026-04-23 12:30 28.39219 119.57781 26603 ft 458 kts 352°
2026-04-23 12:30 28.42406 119.57958 26599 ft 459 kts 352°
2026-04-23 12:30 28.45590 119.58136 26597 ft 458 kts 352°
2026-04-23 12:30 28.48772 119.58327 26603 ft 458 kts 352°
2026-04-23 12:31 28.51965 119.58530 26600 ft 459 kts 352°
2026-04-23 12:31 28.55148 119.58733 26604 ft 458 kts 352°
2026-04-23 12:31 28.58336 119.58935 26606 ft 458 kts 352°
2026-04-23 12:31 28.61516 119.59131 26605 ft 459 kts 352°
2026-04-23 12:32 28.64705 119.59329 26609 ft 458 kts 352°
2026-04-23 12:32 28.67880 119.59521 26614 ft 457 kts 352°
2026-04-23 12:32 28.71064 119.59715 26614 ft 458 kts 352°
2026-04-23 12:32 28.74209 119.59915 26612 ft 458 kts 352°
2026-04-23 12:33 28.77390 119.60118 26607 ft 459 kts 352°
2026-04-23 12:33 28.80583 119.60314 26615 ft 460 kts 352°
2026-04-23 12:33 28.83775 119.60507 26615 ft 458 kts 352°
2026-04-23 12:33 28.86950 119.60704 26616 ft 458 kts 352°
2026-04-23 12:34 28.90117 119.60905 26580 ft 449 kts 352°
2026-04-23 12:34 28.93193 119.61101 26449 ft 435 kts 352°
2026-04-23 12:34 28.96179 119.61290 26278 ft 423 kts 352°
2026-04-23 12:34 28.99091 119.61473 25930 ft 417 kts 352°
2026-04-23 12:35 29.01980 119.61650 25448 ft 415 kts 352°
2026-04-23 12:35 29.04855 119.61823 24930 ft 414 kts 352°
2026-04-23 12:35 29.07728 119.62003 24481 ft 412 kts 352°
2026-04-23 12:35 29.10593 119.62184 24039 ft 410 kts 352°
2026-04-23 12:36 29.13435 119.62358 23610 ft 408 kts 352°
2026-04-23 12:36 29.16257 119.62531 23119 ft 405 kts 353°
2026-04-23 12:36 29.19060 119.62701 22673 ft 402 kts 353°
2026-04-23 12:36 29.21845 119.62869 22219 ft 398 kts 353°
2026-04-23 12:37 29.24558 119.63038 21805 ft 394 kts 353°
2026-04-23 12:37 29.27282 119.63204 21430 ft 390 kts 353°
2026-04-23 12:37 29.29977 119.63368 21015 ft 387 kts 354°
2026-04-23 12:37 29.32661 119.63532 20517 ft 385 kts 354°
2026-04-23 12:38 29.35354 119.63694 19801 ft 390 kts 354°
2026-04-23 12:38 29.38078 119.63857 19200 ft 393 kts 355°
2026-04-23 12:38 29.40795 119.64018 18746 ft 389 kts 355°
2026-04-23 12:38 29.43486 119.64181 18323 ft 386 kts 356°
2026-04-23 12:39 29.46159 119.64344 17848 ft 383 kts 356°
2026-04-23 12:39 29.48805 119.64509 17376 ft 378 kts 356°
2026-04-23 12:39 29.51421 119.64671 16903 ft 374 kts 356°
2026-04-23 12:39 29.54005 119.64827 16450 ft 370 kts 357°
2026-04-23 12:40 29.56552 119.65313 15995 ft 376 kts 13°
2026-04-23 12:40 29.58880 119.66715 15569 ft 381 kts 32°
2026-04-23 12:40 29.60954 119.68604 15133 ft 379 kts 36°
2026-04-23 12:40 29.62974 119.70535 14692 ft 375 kts 36°
2026-04-23 12:41 29.64969 119.72439 14292 ft 371 kts 36°
2026-04-23 12:41 29.66953 119.74319 13876 ft 367 kts 36°
2026-04-23 12:41 29.68872 119.76138 13395 ft 363 kts 36°
2026-04-23 12:41 29.70811 119.77988 12930 ft 358 kts 36°
2026-04-23 12:42 29.72723 119.79803 12442 ft 355 kts 36°
2026-04-23 12:42 29.74614 119.81591 12075 ft 348 kts 36°
2026-04-23 12:42 29.76458 119.83335 11872 ft 337 kts 37°
2026-04-23 12:42 29.78237 119.85023 11708 ft 326 kts 37°
2026-04-23 12:43 29.79956 119.86649 11561 ft 315 kts 36°
2026-04-23 12:43 29.81639 119.88232 11301 ft 309 kts 36°
2026-04-23 12:43 29.83291 119.89787 10947 ft 307 kts 37°
2026-04-23 12:43 29.84933 119.91340 10505 ft 303 kts 37°
2026-04-23 12:44 29.86548 119.92876 10082 ft 299 kts 38°
2026-04-23 12:44 29.88144 119.94393 9628 ft 295 kts 38°
2026-04-23 12:44 29.89738 119.95864 9118 ft 293 kts 37°
2026-04-23 12:44 29.91313 119.97338 8636 ft 290 kts 38°
2026-04-23 12:45 29.92850 119.98811 8175 ft 286 kts 38°
2026-04-23 12:45 29.94374 120.00271 7715 ft 283 kts 38°
2026-04-23 12:45 29.95878 120.01716 7263 ft 280 kts 38°
2026-04-23 12:45 29.97371 120.03146 6806 ft 277 kts 38°
2026-04-23 12:46 29.98845 120.04551 6414 ft 272 kts 38°
2026-04-23 12:46 30.00274 120.05917 6158 ft 261 kts 38°
2026-04-23 12:46 30.01650 120.07227 5902 ft 251 kts 38°
2026-04-23 12:46 30.02985 120.08499 5488 ft 247 kts 38°
2026-04-23 12:47 30.04297 120.09755 5041 ft 244 kts 39°
2026-04-23 12:47 30.05599 120.11001 4584 ft 241 kts 39°
2026-04-23 12:47 30.06887 120.12228 4110 ft 239 kts 39°
2026-04-23 12:47 30.08166 120.13453 3645 ft 238 kts 39°
2026-04-23 12:48 30.09394 120.14683 3361 ft 228 kts 43°
2026-04-23 12:48 30.10421 120.15980 3166 ft 215 kts 51°
2026-04-23 12:48 30.11259 120.17339 3014 ft 196 kts 56°
2026-04-23 12:48 30.11926 120.18643 3053 ft 186 kts 59°
2026-04-23 12:49 30.12550 120.19944 3043 ft 186 kts 61°
2026-04-23 12:49 30.13147 120.21269 3033 ft 186 kts 62°
2026-04-23 12:49 30.13737 120.22597 3027 ft 186 kts 62°
2026-04-23 12:49 30.14326 120.23926 3025 ft 185 kts 62°
2026-04-23 12:50 30.14913 120.25253 3031 ft 186 kts 62°
2026-04-23 12:50 30.15500 120.26580 2938 ft 185 kts 62°
2026-04-23 12:50 30.16086 120.27904 2726 ft 185 kts 62°
2026-04-23 12:50 30.16668 120.29220 2479 ft 183 kts 62°
2026-04-23 12:51 30.17234 120.30501 2234 ft 174 kts 62°
2026-04-23 12:51 30.17767 120.31704 1992 ft 162 kts 62°
2026-04-23 12:51 30.18254 120.32808 1788 ft 146 kts 61°
2026-04-23 12:51 30.18705 120.33825 1590 ft 141 kts 61°
2026-04-23 12:52 30.19149 120.34831 1401 ft 140 kts 61°
2026-04-23 12:52 30.19592 120.35833 1213 ft 140 kts 61°
2026-04-23 12:52 30.20027 120.36817 1032 ft 139 kts 61°
2026-04-23 12:52 30.20467 120.37811 838 ft 139 kts 62°
2026-04-23 12:53 30.20913 120.38822 651 ft 139 kts 62°
2026-04-23 12:53 30.21347 120.39802 474 ft 139 kts 62°
2026-04-23 12:53 30.21787 120.40794 284 ft 138 kts 61°
2026-04-23 12:53 30.22224 120.41781 93 ft 138 kts 62°
2026-04-23 12:54 30.22625 120.42711 39 ft 118 kts 63°
2026-04-23 12:54 30.23031 120.43658 377 ft 138 kts 62°
2026-04-23 12:54 30.23461 120.44645 1067 ft 138 kts 61°
2026-04-23 12:54 30.23883 120.45629 1701 ft 133 kts 62°
2026-04-23 12:55 30.24225 120.46611 2147 ft 137 kts 81°
2026-04-23 12:55 30.24179 120.47727 2561 ft 143 kts 94°